sat.trackr.live / text

‹ back to catalog

STARLINK-4546

NORAD 53422 · 2022-097AL

PAYLOAD ACTIVE UNKNOWN

§ Identity

Operator
Country
US
Launch date
2022-08-10
Launch site
AFETR
Launch vehicle
Mass (kg)
RCS (m²)

Purposes: comms

External: N2YO · Heavens-Above · Gunter

§ Orbital elements

Epoch: 2026-09-19T20:41:42.167040Z

Period
93.85 min
Inclination
53.1592°
Eccentricity
0.0001125
Mean motion
15.34384198 rev/d
Perigee alt
462.0 km
Apogee alt
463.5 km
Semi-major
6,840.9 km
B*
1.0623e-5
RAAN
308.9681°
Arg perigee
88.3278°
Mean anomaly
271.7854°
Rev number
22,814

§ Raw data

STARLINK-45461 53422U 22097AL  26262.86229360 -.00000017  00000+0  10623-4 0  99942 53422  53.1592 308.9681 0001125  88.3278 271.7854 15.34384198228140

JSON: /api/v1/satellites/53422 · /tle

For live sub-satellite position, see the globe view (requires WebGL).

§ Visibility from observer

Set your observer location to see the next 7 days of passes ≥ 10°. The values pass through the URL so the page stays shareable.

No JS? Fill the form by hand. The geolocation button needs JavaScript.